DELTA 1 DEB, 2700

Orbit data source: Space-Track

DELTA 1 DEB, 2700 is space debris in LEO originally from a launch on Sat, 06 Nov 1965 UTC launched from the Air Force Eastern Test Range (AFETR). Debris objects in space refer to the collection of defunct objects orbiting the Earth. Examples of debris include non-operational satellites, rocket bodies, and fragments generated from explosions, collisions, or faulty payload assembly.

Loading next visibility...
Identifier
2700, 1965-089C
Orbit
LEO
Country
Flag of USUS
Related business
Manufacturer
Unknown
Mission
Spacecraft
Bus & Motor
Unknown
Mass
Unknown
Launch date (UTC)
1965-11-06 (61 years ago)
Launch vehicle
Unknown
Launch site
Air Force Eastern Test Range (AFETR)
Object type
Payload
Rocket body
Debris
Shape & HBR
Unknown shape, 0.1 m
Radar Cross Section
Medium (>0.1 m² and <1 m²)

Expand to show TLE details & history
Last TLE update: 13 hours ago

TLE from 13 hours ago
0 DELTA 1 DEB
1 02700U 65089C   26208.52787245 -.00000050  00000-0  14364-3 0  9992
2 02700  59.5917 203.2641 0723171 103.3650 352.0359 12.08985905716338
Epoch: 2026-07-27T12:40Z
TLE epoch observation values (Epoch: 2026-07-27T12:40:08.179Z)
Latitude
59.46855°
Longitude
166.16757°
Altitude
1,076.113 km
Speed
7.578 km/s
True Right ascension
20h 05m 38s
True Declination
59° 19' 27"
Sunlit
Object was in daylight at epoch
Visualization orbit readout
Latitude
Unknown
Longitude
Unknown
Altitude
Unknown
Speed
Unknown
Apparent Right ascension
Unknown
Apparent Declination
Unknown
Sunlit
N/A
Visualization observer readout
Local Sidereal Time
15:14:26
Azimuth
Unknown
Elevation
Unknown
Doppler factor
Unknown
Orbital elements
Apogee altitude
2,220.108 km
Perigee altitude
1,060.376 km
Semi-major axis
8,018.379 km
Eccentricity
0.07232
Inclination
59.5917°
RAAN
203.2641°
Arg. of periapsis
103.365°
True anomaly
350.77543°
Mean anomaly
352.0359°
Eccentric anomaly
351.41756°
Mean motion
3.02283 °/min
Orbital period
119.09 mins
BSTAR
0.00014364
Loading maneuver chart data...
Computing Atmospheric mass density...
Loading historical data...
Loading historical data...
Loading historical data...
Loading historical data...
Loading historical data...
Loading historical data...
Loading historical data...

Documentation

Showing up to 5 results
|